JH1LWU-13 Weather Reports


time (UTC)temp
F
wind
direction
speed
knots
gust
knots
rain 1hr
in
rain 24hr
in
rain mn
in
humidity
%
barometer
mb
20260505190504 59 316 0.0 0.9 0.00 0.00 0.00 67 1018.0
20260505183503 59 314 0.0 0.9 0.00 0.00 0.00 67 1019.0
20260505180502 59 41 0.9 1.7 0.00 0.00 0.00 66 1019.0
20260505173501 59 191 0.0 1.7 0.00 0.00 0.00 65 1020.0
20260505170500 59 285 0.0 0.9 0.00 0.00 0.00 63 1019.0
20260505163459 59 197 1.7 3.5 0.00 0.00 0.00 62 1020.0
20260505160458 59 1 1.7 3.5 0.00 0.00 0.00 61 1020.0
20260505150456 60 13 0.0 2.6 0.00 0.00 0.00 55 1020.0
20260505140454 60 291 2.6 3.5 0.00 0.00 0.00 52 1021.0
20260505123451 60 231 0.0 4.3 0.00 0.00 0.00 48 1020.0
20260505120450 60 35 2.6 3.5 0.00 0.00 0.00 46 1019.0
20260505113449 60 11 2.6 5.2 0.00 0.00 0.00 45 1019.0
20260505110448 61 158 5.2 5.2 0.00 0.00 0.00 44 1018.0
20260505100446 62 15 3.5 4.3 0.00 0.00 0.00 39 1017.0
20260505093445 63 110 1.7 2.6 0.00 0.00 0.00 43 1018.0
20260505090444 64 28 0.0 3.5 0.00 0.00 0.00 41 1017.0
20260505083443 65 314 1.7 5.2 0.00 0.00 0.00 38 1017.0
20260505080442 66 170 0.9 3.5 0.00 0.00 0.00 34 1016.0
20260505073441 68 153 2.6 4.3 0.00 0.00 0.00 28 1017.0
20260505070440 70 174 1.7 5.2 0.00 0.00 0.00 25 1015.0
20260505063439 70 218 3.5 10.4 0.00 0.00 0.00 20 1015.0
20260505060438 71 246 4.3 7.0 0.00 0.00 0.00 16 1015.0
20260505053437 71 167 0.0 3.5 0.00 0.00 0.00 17 1015.0
20260505050436 72 263 0.0 0.0 0.00 0.00 0.00 18 1017.0
20260505040434 72 339 0.9 4.3 0.00 0.00 0.00 20 1017.0
20260505033433 72 281 0.0 2.6 0.00 0.00 0.00 21 1016.0
20260505030432 73 73 0.0 2.6 0.00 0.00 0.00 21 1016.0
20260505023431 72 200 0.9 3.5 0.00 0.00 0.00 20 1016.0
20260505020430 72 6 0.0 0.0 0.00 0.00 0.00 20 1016.0
20260505013429 73 187 0.9 1.7 0.00 0.00 0.00 20 1015.0
20260505010428 71 10 0.0 1.7 0.00 0.00 0.00 21 1015.0
20260505003427 70 141 2.6 2.6 0.00 0.00 0.00 22 1015.0
20260505000428 69 318 0.0 2.6 0.00 0.00 0.00 24 1016.0
20260504233425 68 30 0.0 1.7 0.00 0.00 0.00 24 1015.0
20260504230424 66 55 0.0 1.7 0.00 0.00 0.00 26 1015.0
20260504223423 64 271 0.0 1.7 0.00 0.00 0.00 28 1015.0
20260504220422 62 101 0.0 0.0 0.00 0.00 0.00 30 1015.0
20260504213421 60 267 0.9 0.9 0.00 0.00 0.00 35 1013.0
20260504210420 57 117 0.9 1.7 0.00 0.00 0.00 38 1015.0
20260504203419 55 201 2.6 3.5 0.00 0.00 0.00 39 1013.0
20260504200418 55 4 0.0 0.9 0.00 0.00 0.00 40 1012.0
20260504193417 55 356 0.0 0.9 0.00 0.00 0.00 41 1010.0